Flag for U.S.A. Weather past 2 weeks in Juneau, Alaska, U.S.A.

Now
41 °F

Cloudy.


Feels Like: 35 °F
Forecast: 38 / 45 °F
Wind: 9 mph from East

Location: Juneau International Airport

Current Time: Mar 31, 2015 at 1:27:52 PM

Latest Report: Mar 31, 2015 at 12:53 PM


Visibility: 10 mi

Pressure: 29.78 "Hg

Humidity: 89%

Dew point: 38 °F

Location of JuneauLocation

Historic Weather in Juneau — Graph

°F

Juneau temperature yesterday

Maximum temperature yesterday: 50 °F (at 2:53 PM)
Minimum temperature yesterday: 35 °F (at 6:53 AM)
Average temperature yesterday: 44 °F

Past Weeks' High & Low Weather Summary

 TemperatureHumidityPressure
High50 °F (Mar 25, 12:53 PM)100% (Mar 18, 7:53 AM)30.20 "Hg (Mar 18, 7:53 AM)
Low26 °F (Mar 25, 3:53 AM)28% (Mar 25, 12:53 PM)29.45 "Hg (Mar 30, 5:53 PM)
Average39 °F83%29.85 "Hg
* Reported Mar 16 11:53 AM — Mar 31 11:53 AM, Juneau, Weather by CustomWeather, © 2015

Note: Actual official high and low records may vary slightly from our data, if they occured in-between our weather recording intervals... More about our weather records

Advertising

Juneau weather history for previous 24 hours

 ConditionsComfort  
Time TempWeatherWind HumidityBarometerVisibility
11:53 AM
Tue, Mar 31
40 °FLight rain. Mostly cloudy.15 mph89%29.75 "Hg7 mi
10:53 AM40 °FLight rain. Mostly cloudy.14 mph89%29.73 "Hg10 mi
9:53 AM39 °FLight rain. Cloudy.14 mph93%29.70 "Hg10 mi
8:53 AM39 °FLight rain. Mostly cloudy.10 mph89%29.68 "Hg10 mi
7:53 AM38 °FLight rain. Mostly cloudy.12 mph93%29.66 "Hg10 mi
6:53 AM38 °FLight rain. Mostly cloudy.15 mph93%29.65 "Hg10 mi
5:53 AM39 °FLight rain. Mostly cloudy.13 mph89%29.63 "Hg10 mi
4:53 AM38 °FLight rain. Overcast.16 mph93%29.62 "Hg10 mi
3:53 AM38 °FLight rain. Mostly cloudy.20 mph90%29.60 "Hg10 mi
2:53 AM39 °FLight rain. Mostly cloudy.23 mph86%29.58 "Hg10 mi
1:53 AM40 °FLight rain. Mostly cloudy.24 mph86%29.56 "Hg10 mi
12:53 AM41 °FLight rain. Mostly cloudy.21 mph89%29.54 "Hg10 mi
11:53 PM
Mon, Mar 30
42 °FLight rain. Mostly cloudy.7 mph82%29.53 "Hg10 mi
10:53 PM44 °FMostly cloudy.No wind71%29.51 "Hg10 mi
9:53 PM44 °FLight rain. Mostly cloudy.10 mph71%29.50 "Hg10 mi
8:53 PM46 °FLight rain. Mostly cloudy.8 mph61%29.49 "Hg10 mi
7:53 PM47 °FMostly cloudy.8 mph59%29.47 "Hg10 mi
6:53 PM49 °FMostly cloudy.10 mph48%29.46 "Hg10 mi
5:53 PM48 °FOvercast.7 mph61%29.45 "Hg10 mi
4:53 PM50 °FMostly cloudy.5 mph57%29.45 "Hg10 mi
3:53 PM50 °FOvercast.6 mph57%29.47 "Hg10 mi
2:53 PM50 °FOvercast.9 mph52%29.49 "Hg10 mi
1:53 PM49 °FOvercast.12 mph61%29.54 "Hg10 mi
Weather by CustomWeather, © 2015

See weather overviewHow to use our weather pages